Regional Weather Roundup
Issued by NWS Upton, NY

Current Version | Previous Version | Text Only | Print | Product List | Glossary On
Versions: 1 2 3 4 5 6 7 8 9 10 11 12 13 14 15 16 17 18 19 20 21 22 23 24 25 26 27
000
ASUS41 KOKX 161708
RWROKX

REGIONAL WEATHER ROUNDUP
NATIONAL WEATHER SERVICE NEW YORK NY
1200 PM EST MON JAN 16 2017

NOTE: "FAIR" INDICATES FEW OR NO CLOUDS BELOW 12,000 FEET WITH NO
SIGNIFICANT WEATHER AND/OR OBSTRUCTIONS TO VISIBILITY.

NYZ071-072-176-178-NJZ106-104-161800-
NEW YORK CITY METRO AREA

CITY           SKY/WX    TMP DP  RH WIND       PRES   REMARKS
Central Park   SUNNY     38  21  50 VRB3      30.45F
Wall St Helipt SUNNY     39  24  55 VRB5      30.45F
Bronx Bot Gard NOT AVBL
LaGuardia APRT MOSUNNY   41  21  44 CALM      30.43F
Kennedy INTL   MOSUNNY   38  20  48 SW7       30.45F WCI  33
Breezy Point     N/A     36 N/A N/A SW6         N/A  WCI  31
Newark/Liberty PTSUNNY   40  21  46 SW5       30.44F
Teterboro      SUNNY     38  21  50 S7        30.43F WCI  33
$$

NYZ177-179-078>081-161800-
LONG ISLAND NEW YORK

CITY           SKY/WX    TMP DP  RH WIND       PRES   REMARKS
Jones Beach      N/A     34 N/A N/A SW6         N/A  WCI  29
Matinecock PT  NOT AVBL
Farmingdale    SUNNY     39  20  46 W8        30.43F WCI  33
MacArthur/ISP  PTSUNNY   39  20  46 W7        30.42F WCI  34
Shirley        LGT RAIN  38  20  48 SW8       30.43F WCI  32
Westhampton    SUNNY     39  21  48 SW8       30.44F WCI  33
Southampton    NOT AVBL
Bridgehampton  NOT AVBL
East Hampton     N/A     38  19  45 W7        30.41F WCI  33
Montauk          N/A     37  24  59 W7        30.43F WCI  32
$$

NYZ052-065-067-161800-
HUDSON VALLEY

CITY           SKY/WX    TMP DP  RH WIND       PRES   REMARKS
White Plains   SUNNY     37  19  48 VRB7      30.39F WCI  32
Newburgh       SUNNY     36  23  60 W9        30.41F WCI  29
Montgomery     SUNNY     35  22  58 S9        30.38F WCI  28
Poughkeepsie   SUNNY     34  19  54 S8        30.40F WCI  27
Albany         MOSUNNY   32  18  56 S8        30.38F WCI  25
$$

NJZ001-105-106-008-010-013-015-019>022-104-161800-
NEW JERSEY

CITY           SKY/WX    TMP DP  RH WIND       PRES   REMARKS
Newark/Liberty PTSUNNY   40  21  46 SW5       30.44F
Teterboro      SUNNY     38  21  50 S7        30.43F WCI  33
Caldwell       SUNNY     36  20  52 W7        30.44F WCI  30
Somerville     SUNNY     38  22  52 CALM      30.43F
Linden           N/A     38  21  49 CALM      30.45F
Sussex         SUNNY     35  21  56 SW5       30.40F WCI  31
Andover          N/A     34  21  59 VRB5      30.41F WCI  30
Trenton        SUNNY     39  23  52 VRB3      30.44F
Millville      CLOUDY    41  23  48 NW5       30.45F
Atlantic City  SUNNY     41  20  43 VRB3      30.44F
Wrightstown    SUNNY     40  21  45 VRB3      30.41F
Toms River     SUNNY     41  21  44 SW3       30.45F
Belmar         SUNNY     39  21  48 SW3       30.45F
$$

PAZ047>061-062-071-161800-
EASTERN PENNSYLVANIA

CITY           SKY/WX    TMP DP  RH WIND       PRES   REMARKS
Philadelphia   PTSUNNY   38  23  55 SW5       30.46F WCI  34
Allentown      SUNNY     36  21  54 CALM      30.44F
Scranton       SUNNY     30  20  66 SW7       30.39F WCI  23
$$

CTZ002-004>006-009-010-012-RIZ004-006-007-MAZ004-011-015-161800-
SOUTHERN NEW ENGLAND
 IN CT

CITY           SKY/WX    TMP DP  RH WIND       PRES   REMARKS
Bradley INTL   MOSUNNY   36  18  48 S8        30.38F WCI  30
Hartford       SUNNY     37  18  46 SW7       30.40F WCI  32
Danbury        SUNNY     35  19  52 SW10      30.41F WCI  27
Wtrbury/Oxford MOSUNNY   34  18  51 W6        30.39F WCI  29
Bridgeport     SUNNY     36  18  48 SW10      30.43F WCI  28
Meriden        SUNNY     38  17  42 W8        30.41F WCI  32
New Haven      MOSUNNY   34  21  59 S10       30.42F WCI  26
Chester          N/A     36  14  41 VRB7G15   30.39F WCI  30
Groton         SUNNY     37  25  61 SW10      30.41F WCI  30
Wilimantic     SUNNY     38  18  44 W7        30.40F WCI  33

 IN RI

CITY           SKY/WX    TMP DP  RH WIND       PRES   REMARKS
Providence     PTSUNNY   39  15  37 W10       30.39F WCI  32
Block Island   NOT AVBL
Westerly       SUNNY     38  20  48 W7        30.41F WCI  33
 IN MA

CITY           SKY/WX    TMP DP  RH WIND       PRES   REMARKS
Boston         MOSUNNY   37  15  40 SW18      30.35F WCI  27
Worcester      SUNNY     32  14  47 W16G23    30.30F WCI  21
Westfield      SUNNY     36  19  50 S8        30.36F WCI  30
Provincetown   SUNNY     40  24  53 SW21      30.36F WCI  30
Nantucket      SUNNY     39  22  50 S14       30.39F WCI  31
$$

ANZ330-335-338-340-345-350-353-355-161800-
COASTAL MARINE OBSERVATIONS


STATION/POSITION TIME  SKY/WX   TEMP    WIND        PRES    VSBY  WAVE
                                AIR SEA DIR/SP/G                  HT/PER
                 (UTC)          (F)     (DEG/KT/KT) (MB)    (MI)  (FT/S)
NY HARB ENTRANCE 1650            36 44  310/  2/  4 1031.0          1/11
20 S FIRE ISLAND 1650            37 45  340/  6/  8 1030.7          2/10
GREAT SOUTH BAY  NOT AVBL
23 SSW MONTAUK P 1550            39 48  250/  8/ 12 1031.5          2/10
15 E BARNEGAT LI 1630               46                N/A           2/ 9
HUDSON CANYON    1650            45 53              1030.3          2/11
KINGS POINT      1648                               1030.4
EXECUTION ROCKS  1645            36     200/  2/  4   N/A
CENTRAL LI SOUND 1615            33     270/  8/ 10   N/A           0
EASTERN LI SOUND NOT AVBL
ROBBINS REEF     1642            35     160/  1/  3 1031.1
$$


>>>>>>>>>>>>>>>>>>>>>>>>>>>> KEY <<<<<<<<<<<<<<<<<<<<<<<<<<<
>                                                          <
>     SKY/WX - Sky Condition/Present Weather               <
>     TMP    - Temperature in Fahrenheit                   <
>     DP     - Dew Point in Fahrenheit                     <
>     RH     - Relative Humidity in Percent                <
>     WIND   - Direction (from) and Speed in MPH           <
>     PRES   - Mean Sea Level Pressure (inches of Hg)      <
>     WCI    - Wind Chill Index                            <
>     VSB    - VISIBILITY IN MILES                         <
>     HX     - HEAT INDEX                                  <
>     TC     - TEMPERATURE IN CELSIUS                      <
>     VRB    - VARIABLE WIND DIRECTION                     <
>                                                          <
>>>>>>>>>>>>>>>>>>>>>>>>>>>> KEY <<<<<<<<<<<<<<<<<<<<<<<<<<<




USA.gov is the U.S. government's official web portal to all federal, state and local government web resources and services.